Regional Weather Roundup
Issued by NWS Northern Indiana

Home | Current Version | Previous Version | Text Only | Print | Product List | Glossary Off
Versions: 1 2 3 4 5 6 7 8 9 10 11 12 13 14 15 16 17 18 19 20 21 22 23 24 25 26 27 28 29 30 31 32 33 34 35 36 37 38 39 40 41 42 43 44 45 46 47 48 49 50

000
ASUS43 KIWX 021900
RWRIWX

KIWX WEATHER ROUNDUP
NATIONAL WEATHER SERVICE NORTHERN INDIANA
300 PM EDT WED SEP 02 2015

NOTE: "FAIR" INDICATES FEW OR NO CLOUDS BELOW 12,000 FEET WITH NO
SIGNIFICANT WEATHER AND/OR OBSTRUCTIONS TO VISIBILITY.

* THESE STATIONS ARE NOT UNDER NWS QUALITY CONTROL. THEY ALSO MAY NOT
  REPORT WEATHER SUCH AS PRECIPITATION OR FOG.

INZ001>027-022000-
NORTHERN INDIANA

CITY           SKY/WX    TMP DP  RH WIND       PRES   REMARKS
GARY*          PTSUNNY   91  64  40 SW14      30.02F
KNOX*          MOSUNNY   88  68  51 SW8       30.03S
SOUTH BEND     MOSUNNY   87  69  54 W10       30.04S
ELKHART*       MOSUNNY   86  68  54 W6        30.04F
GOSHEN         MOSUNNY   88  69  53 W10       30.04S
MONTICELLO*    PTSUNNY   88  72  59 SW7       30.04F
ANGOLA*        MOSUNNY   91  73  55 W7        30.04F HX 100
FORT WAYNE     PTSUNNY   89  72  56 W12       30.05F HX  96
PERU/GRISSOM   SUNNY     90  69  50 SW9       30.04F

$$
INZ028>050-022000-
CENTRAL INDIANA

CITY           SKY/WX    TMP DP  RH WIND       PRES   REMARKS
LAFAYETTE      MOSUNNY   89  67  47 VRB7      30.04F
KOKOMO*        PTSUNNY   88  70  55 SW10      30.05F
MUNCIE*        MOSUNNY   86  67  52 W6        30.07F
INDIANAPOLIS   PTSUNNY   88  66  48 S10       30.07F

$$
MIZ043>046-050>051-056>058-064>065-071>073-077>080-022000-
SOUTHWEST LOWER MICHIGAN

CITY           SKY/WX    TMP DP  RH WIND       PRES   REMARKS
BATTLE CREEK   MOSUNNY   88  70  55 NW9       30.04S
BENTON HARBOR  SUNNY     85  70  60 W9        30.03S
COLDWATER*     MOSUNNY   91  68  46 W8        30.03F
HILLSDALE*     MOSUNNY   89  70  54 NW7       30.05S
HOLLAND        SUNNY     84  71  65 W10       30.04R
GRAND RAPIDS   MOSUNNY   88  71  57 NW12      30.02S
KALAMAZOO      MOSUNNY   87  69  54 NW10      30.03S
STURGIS*       SUNNY     88  72  58 W8        30.04S
THREE RIVERS*  FAIR      90  69  50 W12       30.04S

$$
OHZ001>008-015>018-024>025-022000-
NORTHWEST OHIO

CITY           SKY/WX    TMP DP  RH WIND       PRES   REMARKS
DEFIANCE       MOSUNNY   91  68  46 W10G17    30.03F HX  95
FINDLAY        SUNNY     88  71  57 W9        30.03F
TOLEDO EXPRESS SUNNY     86  72  62 VRB7      30.02F
TOLEDO METCALF SUNNY     86  71  60 SW8       30.03F
LIMA           MOSUNNY   87  70  56 SW10      30.05F

$$
AND FOR LAKE MICHIGAN COASTAL AND OPEN LAKE BUOY OBSERVATIONS

STATION/POSITION TEMP    WIND        PRES    VSBY  WAVE
                 AIR SEA DIR/SP/G                  HT/PER
                 (F)     (DEG/KT/KT) (MB)    (MI)  (FT/S)
CALUMET HARBOR    87     180/ 10/ 13   N/A
MICHIGAN CITY     81     240/  4/  5   N/A
BURNS HARBOR      86     220/  6/ 14 1017.3F
SAINT JOSEPH      78     180/  7/  9 1017.9R
SOUTH LAKE BUOY   73 71  190/  6/  6 1015.9S         1
4 MI NW BRIDGMAN  75 73  270/  6/  6   N/A           1/ 3
MICHIGAN CITY     82 74  290/  2/  2   N/A           0

$$
&&



USA.gov is the U.S. government's official web portal to all federal, state and local government web resources and services.